Everett, WA
on Wednesday, February 20, 2013

Wednesday
Previous Day Next Day
Daily Summary
 ActualAverageRecord
Temperature
Mean Temperature °F °F  
Max Temperature 42°F 50°F 68°F (1977)
Min Temperature 37°F 35°F 20°F (1986)
Degree Days
Heating Degree Days 26    
Moisture
Dew Point 36°F   
Average Humidity 86    
Maximum Humidity 93    
Minimum Humidity 76    
Precipitation
Precipitation 0.04 in in in ()
Wind
Wind Speed 4 mph   
Max Wind Speed 12 mph   
Max Gust Speed mph   
Visibility 10 miles   
Events Rain   
Averages and records for this station are not official NWS values.
Key: T is trace of precipitation, MM is missing value
Source: NWS Daily Summary
Seasonal Weather Averages
Time(PST)TemperatureDew PointHumidity Pressure Visibility Wind DirectionWind SpeedGust SpeedPrecipitationEvents Conditions
12:11 AM 39.2°F 35.6°F 87% 30.00 in 10.0 miles Calm Calm - N/A   Overcast
12:53 AM 39.0°F 35.1°F 86% 30.01 in 10.0 miles Calm Calm - N/A   Overcast
1:24 AM 39.2°F 35.6°F 87% 30.01 in 10.0 miles Calm Calm - N/A   Overcast
1:53 AM 39.0°F 35.1°F 86% 30.01 in 10.0 miles Calm Calm - N/A   Mostly Cloudy
2:03 AM 37.4°F 33.8°F 87% 30.01 in 10.0 miles SSW 3.5 mph - N/A   Mostly Cloudy
2:15 AM 37.4°F 33.8°F 87% 30.01 in 10.0 miles Calm Calm - N/A   Mostly Cloudy
2:53 AM 37.9°F 35.1°F 89% 30.03 in 10.0 miles Calm Calm - N/A   Overcast
3:53 AM 39.9°F 37.0°F 89% 30.03 in 10.0 miles Calm Calm - N/A   Overcast
4:01 AM 39.2°F 37.4°F 93% 30.02 in 10.0 miles Calm Calm - N/A   Overcast
4:32 AM 39.2°F 35.6°F 87% 30.02 in 10.0 miles Calm Calm - N/A   Overcast
4:53 AM 37.9°F 35.1°F 89% 30.04 in 10.0 miles South 3.5 mph - N/A   Overcast
5:53 AM 39.0°F 35.1°F 86% 30.04 in 10.0 miles SSE 4.6 mph - N/A   Overcast
6:31 AM 37.4°F 35.6°F 93% 30.02 in 10.0 miles South 5.8 mph - N/A   Overcast
6:53 AM 37.9°F 35.1°F 89% 30.04 in 10.0 miles SSE 6.9 mph - N/A   Overcast
8:53 AM 37.9°F 34.0°F 86% 30.03 in 10.0 miles SSE 6.9 mph - N/A   Overcast
9:53 AM 37.9°F 34.0°F 86% 30.03 in 10.0 miles SSE 8.1 mph - N/A   Overcast
10:00 AM 39.2°F 33.8°F 81% 30.01 in 10.0 miles SSE 8.1 mph - N/A   Overcast
10:53 AM 39.9°F 34.0°F 79% 30.03 in 10.0 miles SSE 9.2 mph - N/A   Overcast
11:37 AM 41.0°F 35.6°F 81% 30.02 in 10.0 miles South 9.2 mph - N/A   Overcast
11:46 AM 41.0°F 35.6°F 81% 30.02 in 10.0 miles South 10.4 mph - N/A   Overcast
11:53 AM 41.0°F 35.1°F 79% 30.04 in 10.0 miles South 10.4 mph - N/A   Overcast
12:53 PM 42.1°F 35.1°F 76% 30.01 in 10.0 miles South 11.5 mph - N/A   Overcast
1:53 PM 42.1°F 35.1°F 76% 30.01 in 10.0 miles South 10.4 mph - N/A   Mostly Cloudy
2:00 PM 42.8°F 35.6°F 76% 29.99 in 10.0 miles South 9.2 mph - N/A   Overcast
2:53 PM 42.1°F 36.0°F 79% 30.00 in 10.0 miles SSE 6.9 mph - 0.00 in Rain Light Rain
3:34 PM 41.0°F 35.6°F 81% 29.99 in 10.0 miles South 8.1 mph - 0.00 in Rain Light Rain
3:53 PM 41.0°F 36.0°F 82% 30.01 in 10.0 miles SSE 8.1 mph - 0.00 in Rain Light Rain
4:53 PM 41.0°F 37.0°F 86% 30.01 in 9.0 miles Variable 5.8 mph - 0.01 in Rain Light Rain
5:53 PM 39.9°F 36.0°F 86% 30.02 in 8.0 miles South 6.9 mph - 0.01 in Rain Light Rain
5:57 PM 39.2°F 37.4°F 93% 30.00 in 8.0 miles South 8.1 mph - 0.00 in Rain Light Rain
6:53 PM 39.9°F 37.0°F 89% 30.02 in 10.0 miles Variable 5.8 mph - 0.02 in Rain Light Rain
7:53 PM 39.0°F 36.0°F 89% 30.02 in 10.0 miles SSE 8.1 mph - 0.00 in   Overcast
8:53 PM 39.0°F 37.0°F 93% 30.03 in 10.0 miles SSE 6.9 mph - N/A   Overcast
9:53 PM 39.0°F 36.0°F 89% 30.03 in 10.0 miles Calm Calm - N/A   Scattered Clouds
10:53 PM 37.9°F 36.0°F 93% 30.03 in 10.0 miles ESE 5.8 mph - N/A   Overcast
11:11 PM 37.4°F 35.6°F 93% 30.02 in 10.0 miles Calm Calm - N/A   Overcast
11:53 PM 37.0°F 35.1°F 93% 30.01 in 10.0 miles ESE 5.8 mph - N/A   Mostly Cloudy
Moon Phase
Feb. 20 Feb. 25 Mar. 04 Mar. 11 Mar. 19
Sunrise:07:06 AM (PST) Moon Rise:12:53 PM (PST)2/20
Sunset:05:40 PM (PST) Moon Set:03:44 AM (PST)2/20

Copyright © 2014 The Weather Underground, Inc.